SL-14 DEB, 45297

Orbit data source: Space-Track

SL-14 DEB, 45297 is space debris in LEO originally from a launch on Thu, 15 Aug 1991 UTC launched from the Plesetsk Missile And Space Complex (PKMTR). Debris objects in space refer to the collection of defunct objects orbiting the Earth. Examples of debris include non-operational satellites, rocket bodies, and fragments generated from explosions, collisions, or faulty payload assembly.

Loading next visibility...
Identifier
45297, 1991-056AK
Orbit
LEO
Country
Flag of CISCIS
Related business
Manufacturer
Unknown
Mission
Spacecraft
Bus & Motor
Unknown
Mass
Unknown
Launch date (UTC)
1991-08-15 (34 years ago)
Launch vehicle
Unknown
Launch site
Plesetsk Missile And Space Complex (PKMTR)
Object type
Payload
Rocket body
Debris
Shape & HBR
Unknown
Radar Cross Section
Small (<0.1 m²)

Expand to show TLE details & history
Last TLE update: 20 hours ago

TLE from 20 hours ago
0 SL-14 DEB
1 45297U 91056AK  25260.79883787  .00008102  00000-0  20396-1 0  9992
2 45297  82.6026   5.8930 0064090 326.6943  33.0154 13.18316948266790
Epoch: 2025-09-17T19:10Z
TLE epoch observation values (Epoch: 2025-09-17T19:10:19.591Z)
Latitude
-0.00008°
Longitude
81.34175°
Altitude
1,153.374 km
Speed
7.296 km/s
True Right ascension
00h 23m 34s
True Declination
0° 00' 00"
Sunlit
Object was in full shadow at epoch
Visualization orbit readout
Latitude
Unknown
Longitude
Unknown
Altitude
Unknown
Speed
Unknown
Apparent Right ascension
Unknown
Apparent Declination
Unknown
Sunlit
N/A
Visualization observer readout
Local Sidereal Time
07:56:06
Azimuth
Unknown
Elevation
Unknown
Doppler factor
Unknown
Orbital elements
Apogee altitude
1,236.89 km
Perigee altitude
1,139.902 km
Semi-major axis
7,566.533 km
Eccentricity
0.00641
Inclination
82.6026°
RAAN
5.893°
Arg. of periapsis
326.6943°
True anomaly
33.41826°
Mean anomaly
33.0154°
Eccentric anomaly
33.21656°
Mean motion
3.2976 °/min
Orbital period
109.17 mins
BSTAR
0.020396
Loading maneuver chart data...
Computing Atmospheric mass density...
Loading historical data...
Loading historical data...
Loading historical data...
Loading historical data...
Loading historical data...
Loading historical data...
Loading historical data...

Documentation

Showing up to 5 results
|